Temp
49 50 51 53 53 52 51 49 48 46 45 44 43 42 41 40 40 40 39 38 37 37 37 37 36 37 37 37 37 37 36 36 33 37 39 40 38 38 39 41 40 40 40
47 47 47 47 48 48 48 47 45 43 44 42 41 40 39 39 39 38 38 37 37 36 35 35 35 35 35 36 36 36 36 37 35 31 36 36 36 39 39 37 38 39 37
45 46 44 44 46 46 44 43 43 43 41 40 39 39 38 37 37 37 37 36 35 35 35 34 34 35 34 34 35 35 35 36 36 33 33 36 37 38 36 37 36 36 37
43 44 42 42 44 43 42 41 40 41 39 38 38 37 37 36 36 35 35 34 33 33 34 34 34 34 34 34 34 34 35 34 34 33 33 34 35 36 36 33 32 34 33
42 43 41 41 41 39 38 38 37 38 38 37 36 35 35 35 35 35 35 34 33 33 33 34 35 34 36 37 35 34 34 33 33 32 32 33 33 33 32 32 30 31 32
41 41 39 37 37 36 36 35 36 35 35 35 34 34 33 34 38 37 35 34 33 32 32 33 34 33 36 37 37 37 37 34 32 32 32 31 31 32 33 30 29 27 25
39 36 36 36 35 36 35 35 34 34 34 33 33 33 33 35 38 37 36 34 33 33 33 33 33 33 33 34 36 37 36 37 38 35 31 31 31 32 30 27 27 25 25
35 35 35 35 35 34 34 34 33 33 33 32 32 33 33 34 38 38 35 33 33 33 33 33 33 33 34 33 33 33 34 34 34 34 34 33 33 33 31 28 25 22 24
35 35 36 36 34 33 32 32 32 32 31 31 32 31 32 33 38 38 35 33 32 33 33 33 33 33 34 36 32 30 31 32 35 37 38 37 37 34 33 26 24 22 22
36 36 36 35 35 34 34 32 31 33 31 31 30 31 30 32 37 38 36 33 31 31 32 32 31 33 35 37 31 31 31 32 30 32 32 32 30 27 30 26 25 21 20
36 35 34 35 35 35 33 31 31 30 30 29 29 28 28 29 32 37 37 32 32 31 30 30 31 34 36 36 37 32 32 33 33 32 31 29 29 26 27 26 25 24 20
34 34 33 33 33 32 32 30 30 30 29 27 26 25 26 27 29 35 37 37 34 31 29 30 31 34 35 36 36 36 36 34 30 28 28 27 30 29 28 27 25 24 25
33 33 32 32 32 32 31 29 28 28 28 26 26 26 25 26 27 33 35 35 36 30 31 31 33 34 36 34 32 33 28 28 28 25 25 25 28 29 26 24 23 20 23
32 32 31 31 29 30 31 30 30 28 28 26 27 27 26 25 26 27 29 32 32 33 32 31 31 32 31 30 24 27 25 25 26 27 24 23 23 23 23 24 22 22 20
31 29 29 30 29 28 29 29 30 30 32 29 29 29 26 25 26 28 28 26 26 28 26 24 25 23 23 22 21 19 20 20 21 22 21 20 20 20 21 22 20 18 19
27 27 29 29 29 28 27 25 30 30 33 33 33 30 26 29 31 31 32 32 32 33 24 21 20 19 19 18 17 17 18 16 19 19 18 18 18 18 18 19 19 17 17
28 27 29 28 28 26 26 25 23 26 30 30 31 31 30 29 31 32 33 33 34 29 20 16 17 17 15 14 14 14 14 16 14 15 16 16 16 16 16 17 18 17 16
25 26 28 29 28 27 27 27 27 23 22 24 31 30 30 30 31 32 32 32 23 17 14 15 13 11 10 10 11 10 11 11 12 14 13 12 11 12 13 15 15 13 14
28 28 28 29 28 28 28 26 26 25 25 24 19 28 28 31 31 31 32 20 19 14 10 8 8 7 7 7 6 5 5 8 9 9 9 8 8 9 10 11 12 10 10
23 23 26 26 26 26 26 25 24 25 24 21 19 21 17 21 23 24 24 13 11 11 7 6 4 3 3 3 3 3 4 4 6 6 6 6 7 7 8 8 9 9 9
20 22 24 26 25 26 25 25 24 24 23 21 20 20 20 19 20 19 14 8 8 8 7 4 2 1 -0 -1 -1 -0 0 4 2 3 3 4 4 4 5 7 7 6 6
17 19 23 24 24 24 24 25 24 23 22 20 18 16 26 17 16 13 10 8 5 4 3 3 1 0 -1 -1 -1 -0 -0 1 0 1 2 1 2 3 3 5 5 6 6
14 13 17 18 18 17 14 15 17 18 18 17 15 13 18 18 12 10 8 4 2 -0 -2 -3 -1 -2 -3 -4 -2 1 1 -0 1 -0 1 1 0 2 2 3 3 3 5
9 9 15 13 15 14 14 14 14 13 12 11 8 11 12 10 9 8 5 2 -0 -3 -3 -4 -3 -1 -1 -3 -3 -4 -2 -1 -3 -2 -2 -1 -1 -1 1 1 2 2 3
6 8 13 15 15 14 14 13 11 10 9 9 7 8 8 8 7 6 5 2 1 -1 -3 -4 -3 -1 -0 0 -1 -4 -6 0 -2 -4 -3 -2 -2 -3 -2 0 1 2 2
6 8 10 10 12 13 12 11 11 10 9 9 9 9 8 7 6 5 3 1 -0 0 0 -0 -0 0 1 1 0 -1 -3 1 -2 -1 -0 -0 -0 -2 -1 -1 -1 1 1
MSLP
1018.44 1018.82 1018.66 1018.97 1019.70 1020.51 1020.87 1021.54 1022.48 1023.65 1024.19 1025.01 1025.97 1026.30 1026.97 1027.70 1028.40 1028.95 1029.54 1029.94 1030.39 1030.96 1031.34 1031.66 1031.89 1032.24 1032.42 1032.62 1032.86 1032.93 1033.04 1033.21 1033.00 1032.62 1032.59 1032.30 1032.00 1031.80 1031.20 1030.51 1030.01 1029.53 1028.90
1018.22 1018.68 1019.04 1019.14 1019.33 1020.21 1021.18 1021.43 1022.13 1023.46 1024.49 1024.88 1025.97 1026.77 1027.45 1028.12 1028.62 1028.96 1029.40 1030.06 1030.46 1031.07 1031.45 1031.78 1032.06 1032.29 1032.48 1032.60 1032.71 1032.85 1032.74 1032.90 1032.99 1032.69 1032.23 1032.13 1031.86 1031.44 1030.88 1030.50 1030.17 1029.74 1029.12
1018.11 1018.58 1019.09 1019.50 1019.74 1020.36 1021.14 1021.68 1022.20 1023.33 1023.72 1025.01 1025.95 1026.70 1027.42 1028.17 1028.64 1029.22 1029.59 1030.00 1030.38 1031.02 1031.31 1031.49 1031.85 1031.93 1032.60 1032.65 1032.58 1032.73 1032.74 1032.72 1032.56 1032.61 1032.06 1031.77 1031.45 1031.10 1030.67 1030.31 1030.00 1029.61 1029.21
1017.91 1018.06 1018.65 1019.40 1019.74 1020.47 1021.28 1021.87 1022.30 1023.45 1023.36 1024.82 1025.93 1026.61 1027.32 1028.04 1028.73 1029.21 1029.70 1030.02 1030.55 1031.24 1031.26 1031.67 1031.58 1031.63 1032.00 1032.42 1032.48 1032.47 1032.30 1032.45 1032.38 1032.14 1031.73 1031.30 1031.08 1030.86 1030.73 1030.41 1029.95 1029.34 1028.87
1017.66 1017.97 1018.50 1019.32 1019.98 1020.76 1021.55 1022.31 1022.66 1023.72 1023.86 1024.71 1025.98 1026.90 1027.43 1027.99 1028.70 1029.31 1029.69 1030.17 1030.64 1030.98 1031.14 1031.50 1031.50 1031.64 1031.77 1031.91 1031.97 1032.05 1031.96 1032.08 1032.17 1032.08 1031.71 1031.31 1031.01 1030.96 1030.86 1030.64 1030.11 1029.52 1028.56
1017.69 1018.12 1018.77 1019.53 1020.29 1021.13 1021.79 1022.51 1023.21 1023.70 1024.26 1025.06 1026.05 1026.84 1027.31 1027.82 1028.24 1028.95 1029.32 1030.01 1030.49 1030.64 1031.09 1031.38 1031.25 1031.49 1031.65 1031.82 1031.68 1031.64 1031.63 1031.83 1031.92 1031.94 1031.66 1031.45 1031.29 1031.36 1031.03 1030.88 1030.52 1030.11 1029.39
1017.82 1018.34 1019.04 1019.78 1020.45 1021.15 1021.90 1022.77 1023.33 1023.79 1024.40 1025.06 1025.80 1026.50 1027.11 1027.59 1027.77 1028.40 1028.96 1029.69 1030.10 1030.45 1030.75 1030.78 1031.09 1031.24 1031.48 1031.61 1031.43 1031.36 1031.58 1031.49 1031.27 1031.37 1031.51 1031.42 1031.35 1031.19 1031.14 1031.08 1031.14 1031.08 1030.57
1017.52 1018.08 1018.78 1019.67 1020.49 1021.27 1021.96 1022.56 1023.16 1023.74 1024.31 1024.91 1025.84 1026.61 1026.84 1027.16 1027.52 1028.16 1028.87 1029.53 1030.02 1030.16 1030.41 1030.34 1030.68 1030.94 1031.15 1031.21 1031.22 1031.22 1031.14 1031.16 1031.22 1031.26 1031.15 1031.11 1031.00 1030.91 1030.99 1031.15 1031.51 1031.25 1030.41
1017.01 1017.45 1018.08 1018.78 1019.74 1020.81 1021.65 1022.42 1023.05 1023.60 1024.26 1024.82 1025.39 1026.04 1026.42 1026.92 1027.31 1027.85 1028.52 1029.21 1029.71 1030.03 1030.04 1030.17 1030.39 1030.62 1030.58 1030.50 1030.61 1030.65 1030.67 1030.75 1030.70 1030.61 1030.49 1030.46 1030.38 1030.50 1030.35 1030.77 1030.92 1030.94 1030.28
1016.00 1016.65 1017.36 1018.08 1018.95 1019.80 1020.58 1021.55 1022.46 1023.07 1023.78 1024.52 1025.24 1025.79 1026.18 1026.54 1026.84 1027.49 1028.06 1028.87 1029.41 1029.75 1029.80 1029.99 1030.22 1030.21 1030.09 1029.91 1030.06 1030.15 1030.29 1030.36 1030.50 1030.43 1030.35 1030.17 1030.44 1030.49 1030.26 1030.48 1030.81 1030.92 1030.71
1015.57 1016.27 1017.15 1017.86 1018.68 1019.55 1020.53 1021.26 1022.08 1022.99 1023.77 1024.45 1025.13 1025.73 1026.19 1026.62 1027.04 1027.17 1027.44 1028.07 1028.52 1028.86 1029.38 1029.63 1029.68 1029.52 1029.48 1029.48 1029.32 1029.56 1029.77 1029.82 1029.74 1029.84 1029.86 1029.96 1029.92 1030.07 1029.90 1030.02 1030.31 1030.34 1030.19
1015.44 1016.25 1017.02 1017.66 1018.42 1019.31 1020.10 1021.06 1021.93 1022.68 1023.64 1024.45 1025.14 1025.89 1026.33 1026.70 1026.90 1026.81 1027.00 1027.29 1027.85 1028.33 1028.69 1028.87 1029.03 1029.02 1028.98 1028.88 1028.73 1028.92 1029.22 1029.31 1029.60 1029.61 1029.67 1029.63 1029.26 1029.09 1029.02 1029.14 1029.31 1029.45 1029.34
1015.36 1016.06 1016.82 1017.57 1018.23 1018.96 1019.72 1020.72 1021.81 1022.51 1023.16 1023.99 1024.76 1025.50 1025.92 1026.36 1026.78 1026.64 1026.64 1026.86 1027.16 1027.79 1028.02 1028.22 1028.32 1028.31 1028.24 1028.40 1028.66 1028.81 1029.16 1029.39 1029.22 1029.38 1029.34 1029.14 1028.74 1028.50 1028.80 1029.03 1028.87 1029.04 1028.80
1015.38 1016.01 1016.65 1017.30 1017.93 1018.52 1019.16 1019.94 1020.58 1021.42 1022.21 1023.03 1023.82 1024.53 1025.20 1025.85 1026.19 1026.28 1026.44 1026.57 1026.96 1027.20 1027.51 1027.78 1028.05 1028.11 1028.21 1028.51 1029.11 1029.02 1029.22 1029.14 1029.13 1028.84 1028.93 1028.90 1028.88 1028.87 1028.83 1028.74 1028.70 1028.67 1028.71
1015.29 1016.02 1016.65 1017.25 1017.85 1018.48 1018.95 1019.27 1019.78 1020.43 1020.78 1021.57 1022.39 1023.13 1023.98 1024.68 1024.59 1025.06 1025.50 1026.09 1026.65 1027.01 1027.58 1027.98 1028.13 1028.44 1028.59 1028.83 1029.05 1029.18 1029.24 1029.11 1028.93 1028.65 1028.60 1028.56 1028.59 1028.56 1028.43 1028.41 1028.30 1028.35 1028.42
1015.49 1016.01 1016.49 1017.07 1017.72 1018.30 1018.87 1019.75 1020.34 1020.62 1020.82 1021.29 1021.79 1022.09 1022.79 1023.09 1023.63 1024.24 1024.70 1025.31 1025.75 1026.15 1027.01 1027.49 1027.83 1028.19 1028.50 1028.69 1028.91 1029.04 1028.98 1029.01 1028.91 1028.74 1028.62 1028.44 1028.40 1028.34 1028.07 1028.09 1028.12 1028.21 1028.18
1015.57 1016.04 1016.57 1017.00 1017.39 1018.05 1018.70 1019.26 1019.96 1020.89 1021.25 1021.37 1021.58 1021.98 1022.44 1022.74 1022.98 1023.66 1024.10 1024.51 1024.86 1025.68 1026.38 1027.03 1027.47 1027.97 1028.30 1028.71 1029.11 1029.20 1028.92 1028.71 1028.62 1028.48 1028.47 1028.41 1028.42 1028.35 1028.28 1027.94 1027.80 1027.91 1027.91
1015.62 1015.77 1016.34 1016.80 1017.14 1017.45 1017.99 1018.70 1019.31 1019.99 1020.50 1020.85 1021.14 1021.52 1022.11 1022.28 1022.60 1023.15 1023.61 1023.98 1025.07 1025.76 1026.30 1026.82 1027.34 1027.88 1028.43 1028.69 1028.72 1028.74 1028.73 1028.75 1028.52 1028.29 1028.14 1028.10 1027.99 1027.88 1027.90 1027.85 1027.78 1027.82 1027.77
1015.54 1015.57 1015.96 1016.51 1016.97 1017.25 1017.62 1018.09 1018.61 1019.27 1019.79 1020.26 1021.31 1021.29 1021.59 1021.90 1022.33 1022.65 1022.99 1023.85 1024.65 1025.58 1026.34 1026.98 1027.34 1027.78 1028.08 1028.43 1028.45 1028.50 1028.52 1028.48 1028.30 1028.23 1028.14 1028.27 1028.28 1028.17 1028.00 1027.50 1027.89 1027.90 1027.77
1015.36 1015.37 1015.59 1016.07 1016.70 1017.06 1017.35 1017.73 1018.21 1018.61 1019.12 1019.70 1020.30 1020.67 1021.33 1021.83 1021.83 1021.98 1022.34 1023.50 1024.47 1025.07 1025.74 1026.41 1027.04 1027.65 1027.67 1027.76 1027.94 1028.04 1028.40 1028.35 1028.31 1028.22 1027.99 1028.05 1028.15 1028.04 1028.14 1027.74 1027.58 1027.78 1027.69
1015.62 1015.69 1015.72 1016.08 1016.22 1016.35 1016.58 1016.76 1017.27 1018.01 1018.17 1018.52 1018.86 1019.61 1020.27 1020.57 1020.98 1021.46 1022.25 1023.22 1023.90 1024.64 1025.20 1025.69 1026.32 1026.94 1027.28 1027.55 1027.51 1027.62 1027.99 1027.93 1028.06 1027.97 1028.11 1027.88 1027.77 1028.17 1027.90 1027.81 1027.57 1027.59 1027.63
1015.73 1015.88 1015.99 1016.14 1016.33 1016.43 1016.36 1016.60 1016.79 1017.08 1017.58 1018.01 1018.45 1019.12 1019.41 1020.12 1020.44 1021.04 1021.79 1022.51 1023.17 1023.86 1024.59 1025.20 1025.59 1025.93 1026.46 1026.88 1027.18 1027.07 1027.39 1027.45 1027.65 1027.92 1027.90 1027.90 1027.82 1028.01 1027.76 1027.69 1027.47 1027.29 1027.35
1016.28 1016.26 1016.19 1016.17 1016.11 1016.25 1016.49 1016.77 1017.02 1017.27 1017.49 1017.66 1018.17 1018.74 1019.04 1019.13 1019.91 1020.62 1021.48 1022.34 1023.07 1023.73 1024.30 1024.86 1024.96 1025.23 1025.78 1026.06 1026.09 1026.18 1026.18 1026.16 1026.61 1026.95 1027.23 1027.55 1027.45 1027.73 1027.44 1027.34 1027.23 1027.08 1027.03
1016.66 1016.47 1016.43 1016.40 1016.34 1016.33 1016.46 1016.80 1017.18 1017.45 1017.80 1018.14 1018.44 1018.75 1018.96 1019.00 1019.45 1020.12 1020.85 1021.80 1022.84 1023.34 1023.71 1023.86 1024.30 1024.63 1024.90 1025.21 1025.67 1025.74 1025.86 1025.99 1026.33 1026.27 1026.49 1027.09 1026.99 1027.10 1027.02 1026.97 1026.90 1026.77 1026.73
1017.00 1016.91 1016.62 1016.42 1016.44 1016.55 1016.73 1016.70 1016.79 1017.06 1017.42 1017.82 1018.09 1018.44 1019.04 1018.87 1019.12 1019.78 1020.36 1021.08 1022.03 1022.78 1023.28 1023.25 1023.74 1023.79 1023.77 1024.47 1024.51 1024.75 1024.96 1025.26 1025.61 1025.39 1025.80 1026.27 1026.25 1026.37 1026.50 1026.42 1026.39 1026.27 1026.23
1017.25 1017.18 1016.94 1016.68 1016.51 1016.42 1016.37 1016.34 1016.40 1016.67 1016.96 1017.22 1017.38 1017.92 1018.29 1018.56 1018.79 1019.09 1019.84 1020.84 1021.50 1021.80 1022.18 1022.63 1022.66 1022.59 1023.02 1023.37 1023.43 1023.72 1024.13 1024.26 1024.62 1024.54 1024.80 1025.00 1025.11 1025.25 1025.56 1025.71 1025.78 1025.74 1025.69
Wind_Speed
6 5 7 7 8 8 9 11 11 10 12 12 10 11 10 10 8 8 7 8 9 7 6 7 7 6 5 5 4 4 4 3 3 3 7 9 12 11 10 11 10 11 11
5 6 6 7 10 10 10 11 12 12 9 12 10 10 9 8 7 8 9 7 8 8 7 7 7 5 6 5 4 5 4 3 4 9 9 8 10 11 10 11 8 9 10
6 7 6 7 9 9 10 10 10 12 13 11 10 11 10 8 8 7 8 8 8 7 7 7 7 7 6 4 4 3 3 3 4 4 6 7 7 8 9 9 9 9 8
7 8 9 8 9 10 10 10 11 11 15 12 9 10 9 8 8 8 8 8 8 6 7 7 7 7 6 4 3 2 2 3 4 5 6 6 6 8 8 8 9 9 9
8 8 8 7 8 9 10 9 10 10 11 11 11 8 8 8 6 8 8 8 8 8 7 6 6 6 6 3 2 2 3 2 4 5 6 7 7 8 9 7 8 8 8
8 8 8 9 9 9 9 10 10 9 11 11 10 10 9 5 14 13 10 7 7 7 7 6 5 5 4 3 3 4 3 3 4 3 5 8 9 8 6 7 7 8 6
7 7 8 9 10 11 11 11 10 11 11 10 10 9 9 8 16 15 14 6 7 6 6 6 5 3 4 3 2 0 1 7 8 4 5 7 8 6 4 4 6 5 5
9 10 10 11 11 11 12 11 10 9 10 10 9 8 9 7 16 15 13 6 5 5 6 6 5 5 4 4 3 3 3 2 4 3 3 6 5 4 3 2 3 5 7
12 12 13 14 14 13 12 11 9 9 8 8 8 9 10 8 17 15 12 6 5 5 5 5 5 5 5 4 3 4 3 3 5 7 7 9 9 8 5 1 3 4 3
14 14 14 14 15 16 15 13 8 9 9 8 8 7 8 9 15 15 12 5 6 4 3 4 7 6 7 6 3 4 4 6 4 5 4 4 3 6 6 3 2 3 2
10 11 12 13 13 12 11 8 10 9 9 8 8 6 6 7 8 15 16 6 5 5 5 4 3 7 7 8 9 3 4 6 8 5 4 4 3 3 1 2 5 5 4
10 11 12 12 10 10 14 10 10 11 10 9 8 6 4 5 9 14 14 13 10 6 5 4 4 8 8 10 8 7 11 10 3 3 3 4 5 5 4 4 5 7 7
10 11 11 11 10 11 12 12 9 9 9 9 8 6 6 5 4 13 13 13 13 6 4 6 9 9 8 4 3 6 5 4 4 4 5 5 4 4 4 4 3 4 6
10 11 11 12 11 11 9 10 10 10 9 8 8 7 6 6 6 5 5 7 10 7 6 4 4 5 2 1 1 2 2 3 5 6 4 3 3 2 4 3 2 1 2
8 8 9 9 11 10 8 9 9 8 11 11 9 8 9 7 9 13 11 7 5 6 3 1 2 2 2 2 2 2 3 3 4 4 4 3 3 3 4 3 2 2 3
7 7 8 8 9 8 9 7 5 9 14 13 11 9 3 4 13 19 18 15 13 13 3 4 4 4 5 3 3 4 3 2 2 2 3 3 4 4 4 3 2 3 3
7 7 6 7 8 9 9 9 10 5 11 11 11 13 12 12 15 17 18 15 13 9 4 4 4 5 4 4 4 4 3 2 2 3 3 3 3 3 3 2 2 3 3
4 7 7 8 9 9 10 9 8 10 9 7 14 13 17 15 17 17 17 12 7 5 3 4 5 4 4 5 4 3 2 2 2 2 2 2 2 2 2 2 2 2 3
6 6 7 7 7 9 8 8 8 8 7 5 2 12 13 16 16 17 19 5 7 4 4 4 4 4 5 4 3 3 3 3 2 2 2 1 2 2 3 2 2 3 3
4 7 7 7 7 8 8 8 8 8 8 7 7 9 5 5 10 11 8 4 4 4 4 5 4 5 5 4 3 2 2 2 3 2 2 2 2 3 3 3 2 3 2
2 3 7 6 8 9 9 10 10 8 8 8 9 10 18 11 10 9 8 7 6 6 6 5 5 5 4 3 4 3 3 3 3 3 3 3 3 3 3 3 3 3 2
3 2 5 7 6 7 8 8 8 9 9 8 7 8 23 10 7 7 7 7 6 5 4 5 5 5 5 5 5 5 5 4 4 4 4 3 3 4 3 3 3 3 3
1 2 4 3 3 3 2 1 4 5 6 7 6 7 9 9 8 6 6 5 5 5 5 5 4 4 4 5 5 5 6 6 6 5 4 4 4 5 4 4 4 3 4
2 3 4 3 4 4 5 5 5 5 3 3 4 5 7 6 6 7 6 5 5 4 4 5 5 7 5 4 5 5 5 4 4 5 6 4 5 5 4 4 5 5 5
2 2 3 5 4 5 4 4 5 6 6 6 6 7 6 6 6 6 5 5 5 5 6 5 5 7 8 9 8 7 7 10 8 7 5 6 6 6 5 5 5 5 6
2 3 3 3 4 5 6 6 7 7 7 7 6 6 6 6 6 6 6 5 6 6 6 6 7 9 9 8 8 8 8 10 9 10 7 7 7 6 6 7 7 6 6
Wind_Direction
188 191 174 163 154 154 159 148 151 142 145 137 144 133 135 136 135 125 122 129 122 118 110 110 101 112 100 90 87 90 74 43 329 322 331 337 347 345 345 343 340 348 339
172 166 168 154 152 154 158 147 150 145 144 137 139 130 131 134 134 135 134 135 131 125 124 117 118 112 98 96 86 71 65 48 2 335 335 348 343 338 342 343 341 342 333
164 160 147 155 156 154 148 144 145 146 140 127 133 142 142 146 139 132 133 132 122 131 143 128 136 122 111 106 97 74 49 24 5 332 327 321 329 339 343 347 343 337 338
164 160 161 164 159 152 147 145 137 153 136 134 143 143 142 139 136 133 138 130 125 135 133 140 136 134 123 104 103 82 43 10 348 332 324 332 340 339 341 339 336 341 333
165 163 159 141 133 131 136 138 131 147 134 135 136 132 130 137 141 145 139 142 147 145 143 150 142 134 125 117 115 81 36 1 339 324 332 337 340 335 337 336 329 331 331
162 161 139 133 130 135 132 136 140 139 130 133 138 144 143 140 153 153 144 149 154 153 158 162 152 140 156 119 74 34 21 336 307 315 329 325 323 305 323 336 336 350 332
153 137 139 142 145 148 143 146 148 150 143 145 146 146 145 149 155 157 158 154 158 166 162 157 157 165 174 177 209 306 344 310 305 304 316 310 300 314 319 316 329 326 289
158 153 151 156 156 154 158 160 152 152 152 151 151 155 150 160 162 159 159 156 163 164 178 166 166 174 197 199 213 225 234 279 289 261 270 278 272 279 275 304 311 302 286
179 175 172 166 161 163 165 162 157 153 151 159 159 159 160 164 170 168 162 161 167 182 175 178 184 195 218 259 228 240 255 266 291 280 297 315 317 323 295 208 312 326 306
189 181 174 171 169 171 169 166 157 158 156 155 154 167 163 161 178 182 173 164 176 189 191 206 212 212 227 251 228 250 271 268 258 247 260 277 315 307 285 207 204 260 276
171 166 170 173 172 169 158 155 153 153 147 151 153 151 151 161 183 190 193 183 192 176 199 202 212 233 243 259 259 203 262 272 254 236 262 286 259 300 240 217 217 226 221
160 165 172 169 164 160 160 153 154 153 155 156 150 151 166 168 186 194 198 201 196 187 194 198 216 241 250 251 259 249 280 294 226 241 265 276 286 285 260 256 254 239 232
158 169 170 167 165 165 160 157 153 158 161 163 169 171 177 178 189 195 198 203 206 190 186 210 230 243 255 282 294 285 297 261 240 245 266 261 269 304 303 291 264 262 247
170 171 169 173 167 168 168 169 166 171 169 168 172 177 174 174 185 193 196 195 213 211 212 233 243 254 232 206 331 296 286 270 259 256 248 260 302 291 281 255 253 246 262
166 167 172 176 178 171 177 176 175 182 180 173 183 176 169 191 205 195 184 183 190 207 176 200 211 225 231 252 266 263 269 271 251 239 242 255 268 263 263 234 229 207 243
155 166 177 173 177 175 164 141 162 169 167 178 172 170 177 165 185 190 192 196 202 215 155 188 202 213 227 231 248 270 261 264 291 274 262 247 262 267 268 252 225 235 250
172 173 174 179 178 175 176 173 163 162 193 191 187 194 193 182 176 188 193 201 205 172 190 200 213 212 216 215 225 221 238 271 278 260 268 269 259 264 261 271 256 245 246
161 170 177 187 186 182 181 180 171 174 179 181 208 194 199 190 193 198 198 184 172 197 192 196 209 205 208 217 214 217 243 266 262 256 241 230 216 220 244 243 246 241 255
182 178 183 188 194 190 183 176 174 179 181 162 158 202 199 199 199 202 207 188 197 190 187 206 199 196 207 210 215 213 224 243 240 239 233 227 213 213 240 218 251 261 248
188 176 179 177 180 185 183 184 183 190 184 182 186 203 159 165 198 202 199 157 183 193 183 196 195 210 210 204 203 208 234 243 238 234 227 214 219 214 240 241 228 251 245
173 181 190 190 194 195 192 194 190 197 198 198 205 189 188 190 196 195 191 188 191 198 194 192 189 201 198 201 200 200 220 234 233 229 228 223 200 226 222 244 246 237 246
160 168 195 208 206 205 206 205 200 200 205 203 196 191 200 199 195 190 190 192 191 189 181 187 195 192 187 194 201 197 208 217 218 225 225 222 216 229 227 237 244 245 245
174 167 196 201 185 161 161 191 210 217 216 213 195 186 205 198 196 193 192 184 180 183 182 187 198 201 206 210 204 204 200 202 209 196 201 222 216 232 224 241 242 248 245
225 194 217 221 212 210 208 215 219 216 214 204 187 207 209 194 181 181 179 171 185 190 190 186 198 208 207 208 216 212 220 228 202 204 193 212 220 229 232 234 239 234 250
241 250 235 228 215 223 234 225 210 204 204 206 203 207 212 196 185 187 185 179 187 189 207 196 204 215 214 221 217 215 219 229 212 197 195 208 217 218 227 232 235 239 240
261 253 255 241 235 225 219 220 217 207 211 211 201 208 203 205 197 183 182 188 199 206 207 211 211 212 217 227 224 222 219 221 218 210 201 205 213 217 217 230 232 233 235